Showing default

QIANFAN-151, 69110

Orbit data source: Space-Track

QIANFAN-151, 69110 is a Chinese payload satellite in LEO that was launched on Sun, 17 May 2026 UTC via a CHANG ZHENG 8 launch vehicle from the Wenchang Satellite Launch Center (WSC). Payload-class satellites include a variety of spacecraft equipped with specific instruments for various scientific and technological missions. These include communications satellites like Starlink; space stations such as the ISS; scientific satellites like the Hubble; Earth observation satellites from companies like Planet Labs, Umbra, and HawkEye 360; GPS; miniature CubeSats for education and research; and military/defense satellites.

Loading next visibility...
Identifier
69110, 2026-108G
Orbit
LEO
Country
Flag of CNCN / PRC
Related business
Manufacturer
SECM
Mission
Operational spacecraft
Bus & Motor
QIANFAN, Unknown motor
Mass
267 kg wet, ~267 kg dry
Launch date (UTC)
2026-05-17 (1 month ago)
Launch vehicle
CHANG ZHENG 8
Launch site
Wenchang Satellite Launch Center (WSC)
Object type
Payload
Rocket body
Debris
Shape & HBR
Unknown shape, 14.5 m
Radar Cross Section
Large (>1 m²)

Expand to show TLE details & history
Last TLE update: 21 hours ago

TLE from 21 hours ago
0 QIANFAN-151
1 69110U 26108G   26170.97327586 -.00000020  00000-0 -22952-4 0  9995
2 69110  89.0109  21.9125 0017989  98.4586 261.8634 14.00814396  4730
Epoch: 2026-06-19T23:21Z
TLE epoch observation values (Epoch: 2026-06-19T23:21:31.034Z)
Latitude
0.00007°
Longitude
123.33862°
Altitude
895.876 km
Speed
7.403 km/s
True Right ascension
01h 27m 39s
True Declination
0° 00' 00"
Sunlit
Object was in daylight at epoch
Visualization orbit readout
Latitude
Unknown
Longitude
Unknown
Altitude
Unknown
Speed
Unknown
Apparent Right ascension
Unknown
Apparent Declination
Unknown
Sunlit
N/A
Visualization observer readout
Local Sidereal Time
07:12:13
Azimuth
Unknown
Elevation
Unknown
Doppler factor
Unknown
Orbital elements
Apogee altitude
901.026 km
Perigee altitude
874.884 km
Semi-major axis
7,266.092 km
Eccentricity
0.0018
Inclination
89.0109°
RAAN
21.9125°
Arg. of periapsis
98.4586°
True anomaly
261.6594°
Mean anomaly
261.8634°
Eccentric anomaly
261.76139°
Mean motion
3.50422 °/min
Orbital period
102.73 mins
BSTAR
-0.000022952
Loading maneuver chart data...
Computing Atmospheric mass density...
Loading historical data...
Loading historical data...
Loading historical data...
Loading historical data...
Loading historical data...
Loading historical data...
Loading historical data...

Documentation

Showing up to 5 results
|